Flag for Germany Weather past 2 weeks in Seevetal, Lower Saxony, Germany

Now
45 °F

Broken clouds.


Feels Like: 38 °F
Forecast: 38 / 49 °F
Wind: 13 mph from Southwest

Location: Hamburg-Finkenwerder

Current Time: Mar 27, 2015 at 1:03:54 PM

Latest Report: Mar 27, 2015 at 12:20 PM


Visibility: N/A

Pressure: 29.83 "Hg

Humidity: 93%

Dew point: 43 °F

Location of SeevetalLocation

Historic Weather in Seevetal — Graph

°F

Seevetal temperature yesterday

Maximum temperature yesterday: 45 °F (at 12:20 PM)
Minimum temperature yesterday: 41 °F (at 5:50 AM)
Average temperature yesterday: 43 °F

Past Weeks' High & Low Weather Summary

 TemperatureHumidityPressure
High59 °F (Mar 18, 4:20 PM)100% (Mar 14, 1:20 PM)30.51 "Hg (Mar 14, 1:20 PM)
Low30 °F (Mar 20, 5:20 AM)27% (Mar 19, 2:50 PM)29.65 "Hg (Mar 25, 4:50 PM)
Average45 °F73%30.14 "Hg
* Reported Mar 12 11:20 AM — Mar 27 11:50 AM, Seevetal, Weather by CustomWeather, © 2015

Note: Actual official high and low records may vary slightly from our data, if they occured in-between our weather recording intervals... More about our weather records

Advertising

Seevetal weather history for previous 24 hours

 ConditionsComfort  
Time TempWeatherWind HumidityBarometerVisibility
11:50 AM
Fri, Mar 27
45 °FBroken clouds.13 mph93%29.83 "HgN/A
11:20 AM45 °FBroken clouds.12 mph87%29.83 "HgN/A
10:50 AM45 °FBroken clouds.9 mph93%29.80 "HgN/A
10:20 AM45 °FLight rain. Broken clouds.14 mph100%29.80 "HgN/A
9:50 AM45 °FBroken clouds.13 mph93%29.80 "HgN/A
9:20 AM45 °FBroken clouds.9 mph93%29.77 "HgN/A
8:50 AM43 °FBroken clouds.9 mph100%29.77 "HgN/A
8:20 AM43 °FBroken clouds.8 mph100%29.77 "HgN/A
7:50 AM43 °FLight rain. Broken clouds.10 mph100%29.77 "Hg5 mi
7:20 AM43 °FPartly sunny.8 mph100%29.74 "Hg4 mi
6:50 AM43 °FBroken clouds.7 mph100%29.74 "Hg4 mi
6:20 AM41 °FBroken clouds.7 mph100%29.74 "Hg4 mi
5:50 AM41 °FPassing clouds.7 mph100%29.71 "Hg4 mi
8:50 PM
Thu, Mar 26
41 °FPassing clouds.3 mph87%29.74 "HgN/A
8:20 PM43 °FPassing clouds.2 mph76%29.71 "HgN/A
7:50 PM43 °FPassing clouds.2 mph76%29.74 "HgN/A
7:20 PM43 °FPassing clouds.3 mph76%29.74 "HgN/A
6:50 PM43 °FPassing clouds.2 mph76%29.71 "HgN/A
6:20 PM43 °FPassing clouds.3 mph71%29.71 "HgN/A
5:50 PM45 °FScattered clouds.6 mph66%29.71 "HgN/A
5:20 PM45 °FPartly sunny.9 mph66%29.71 "HgN/A
4:50 PM45 °FPartly sunny.9 mph71%29.71 "HgN/A
4:20 PM45 °FPartly sunny.8 mph71%29.71 "HgN/A
3:50 PM45 °FPartly sunny.6 mph66%29.71 "HgN/A
3:20 PM45 °FPartly sunny.9 mph61%29.71 "HgN/A
2:50 PM45 °FPartly sunny.6 mph66%29.71 "HgN/A
2:20 PM45 °FPartly sunny.7 mph66%29.71 "HgN/A
1:50 PM45 °FPartly sunny.8 mph71%29.74 "HgN/A
1:20 PM45 °FPartly sunny.8 mph71%29.74 "HgN/A
Weather by CustomWeather, © 2015

See weather overviewHow to use our weather pages